sat.trackr.live / text

‹ back to catalog

STARLINK-5469

NORAD 55649 · 2023-021X

PAYLOAD ACTIVE UNKNOWN

§ Identity

Operator
Country
US
Launch date
2023-02-17
Launch site
AFWTR
Launch vehicle
Mass (kg)
RCS (m²)

Purposes: comms

External: N2YO · Heavens-Above · Gunter

§ Orbital elements

Epoch: 2026-09-20T11:53:17.229984Z

Period
96.11 min
Inclination
69.9989°
Eccentricity
0.0003043
Mean motion
14.98317548 rev/d
Perigee alt
570.0 km
Apogee alt
574.2 km
Semi-major
6,950.2 km
B*
1.4547e-4
RAAN
53.1898°
Arg perigee
265.0443°
Mean anomaly
95.0368°
Rev number
19,797

§ Raw data

STARLINK-54691 55649U 23021X   26263.49533831  .00001643  00000+0  14547-3 0  99992 55649  69.9989  53.1898 0003043 265.0443  95.0368 14.98317548197973

JSON: /api/v1/satellites/55649 · /tle

For live sub-satellite position, see the globe view (requires WebGL).

§ Visibility from observer

Set your observer location to see the next 7 days of passes ≥ 10°. The values pass through the URL so the page stays shareable.

No JS? Fill the form by hand. The geolocation button needs JavaScript.